Weather History for Milwaukee, WI

Change the Weather History Date:

Thursday, September 19, 2013

  Actual Average Record
Temperature  
Mean Temperature 75 °F 62 °F  
Max Temperature 81 °F 70 °F 91 °F (1895)
Min Temperature 68 °F 54 °F 35 °F (1956)
Degree Days  
Heating Degree Days 0 5  
Month to date heating degree days 44 51  
Since 1 July heating degree days 66 77  
Cooling Degree Days 10 2  
Month to date cooling degree days 96 58  
Year to date cooling degree days 673 623  
Growing Degree Days 24 (Base 50)    
Moisture  
Dew Point 67 °F    
Average Humidity 82    
Maximum Humidity 93    
Minimum Humidity 71    
Precipitation  
Precipitation 0.53 in 0.11 in 1.44 in (1997)
Month to date precipitation 1.45 2.00  
Year to date precipitation 31.58 26.18  
Snow  
Snow 0.00 in 0.00 in 0.00 in ()
Month to date snowfall 0.0 0.0  
Since 1 July snowfall 0.0 0.0  
Since 1 September snowfall 0.0 0.0  
Snow Depth 0.00 in    
Sea Level Pressure  
Sea Level Pressure 29.85 in    
Wind  
Wind Speed 11 mph (South)    
Max Wind Speed 22 mph    
Max Gust Speed 32 mph    
Visibility 8 miles    
Events Rain , Thunderstorm    
T = Trace of Precipitation, MM = Missing Value Source: NWS Daily Summary

Daily Weather History Graph

Daily Weather History Graph

Search for Another Location

Airport:

Trip Planner

Search our weather history database for the weather conditions in past years. The results will help you decide how hot, cold, wet, or windy it might be!

Date:

Astronomy

Sep. 19, 2013 Rise Set
Actual Time 6:35 AM CDT 6:53 PM CDT
Civil Twilight 6:07 AM CDT 7:22 PM CDT
Nautical Twilight 5:34 AM CDT 7:55 PM CDT
Astronomical Twilight 4:59 AM CDT 8:29 PM CDT
Moon 6:49 PM CDT (9/19) 6:46 AM CDT (9/19)
Length of Visible Light 13h 14m
Length of Day
12h 17m
Full, 100% of the Moon is Illuminated
Sep 19
Full
Sep 26
Last Quarter
Oct 4
New
Oct 11
First Quarter
Oct 18
Full

Hourly Weather History & Observations

Time (CDT) Temp. Heat Index Dew Point Humidity Pressure Visibility Wind Dir Wind Speed Gust Speed Precip Events Conditions
12:52 AM 70.0 °F - 64.0 °F 81% 29.91 in 10.0 mi South 8.1 mph - N/A   Mostly Cloudy
1:52 AM 71.1 °F - 64.9 °F 81% 29.91 in 10.0 mi South 6.9 mph - N/A   Mostly Cloudy
2:52 AM 70.0 °F - 64.9 °F 84% 29.89 in 10.0 mi South 10.4 mph - N/A   Partly Cloudy
3:52 AM 70.0 °F - 66.0 °F 87% 29.88 in 8.0 mi SSW 10.4 mph - N/A   Scattered Clouds
4:52 AM 69.1 °F - 66.0 °F 90% 29.89 in 8.0 mi SSW 9.2 mph - N/A   Partly Cloudy
5:52 AM 69.1 °F - 66.0 °F 90% 29.90 in 5.0 mi SSE 8.1 mph - N/A   Mostly Cloudy
6:52 AM 70.0 °F - 66.9 °F 90% 29.89 in 5.0 mi SSW 8.1 mph - N/A   Mostly Cloudy
7:52 AM 70.0 °F - 66.9 °F 90% 29.92 in 5.0 mi South 6.9 mph - N/A   Overcast
8:52 AM 70.0 °F - 66.9 °F 90% 29.89 in 7.0 mi South 8.1 mph - 0.02 in Rain Light Rain
9:52 AM 69.1 °F - 66.9 °F 93% 29.92 in 10.0 mi SSW 9.2 mph - 0.01 in Rain Light Rain
10:52 AM 72.0 °F - 68.0 °F 87% 29.92 in 10.0 mi SSE 5.8 mph - 0.00 in   Mostly Cloudy
11:52 AM 75.9 °F - 70.0 °F 82% 29.90 in 9.0 mi South 6.9 mph - N/A   Mostly Cloudy
12:52 PM 79.0 °F - 71.1 °F 77% 29.87 in 8.0 mi SSE 13.8 mph 20.7 mph N/A   Mostly Cloudy
1:52 PM 78.1 °F - 71.1 °F 79% 29.85 in 7.0 mi SSE 15.0 mph - N/A   Mostly Cloudy
2:52 PM 81.0 °F 84.9 °F 71.1 °F 72% 29.83 in 6.0 mi South 17.3 mph 23.0 mph N/A   Haze
3:52 PM 79.0 °F - 69.1 °F 72% 29.80 in 9.0 mi South 17.3 mph 24.2 mph N/A   Mostly Cloudy
4:52 PM 78.1 °F - 68.0 °F 71% 29.77 in 10.0 mi SSE 16.1 mph - N/A   Scattered Clouds
5:52 PM 73.9 °F - 68.0 °F 82% 29.76 in 10.0 mi South 19.6 mph 24.2 mph N/A   Scattered Clouds
6:52 PM 73.9 °F - 68.0 °F 82% 29.76 in 10.0 mi South 11.5 mph - N/A   Mostly Cloudy
7:19 PM 75.2 °F - 68.0 °F 78% 29.85 in 10.0 mi West 16.1 mph 26.5 mph N/A Thunderstorm Thunderstorm
7:35 PM 71.6 °F - 66.2 °F 83% 29.88 in 2.0 mi West 13.8 mph 27.6 mph 0.03 in Rain , Thunderstorm Heavy Thunderstorms and Rain
7:52 PM 69.1 °F - 66.0 °F 90% 29.86 in 2.0 mi WNW 9.2 mph - 0.23 in Rain , Thunderstorm Heavy Thunderstorms and Rain
8:08 PM 68.0 °F - 66.2 °F 94% 29.84 in 1.8 mi Calm Calm - 0.17 in Rain , Thunderstorm Heavy Thunderstorms and Rain
8:12 PM 68.0 °F - 66.2 °F 94% 29.83 in 3.0 mi NNW 8.1 mph - 0.18 in Rain , Thunderstorm Light Thunderstorms and Rain
8:42 PM 69.8 °F - 66.2 °F 88% 29.80 in 10.0 mi ESE 3.5 mph - 0.18 in   Scattered Clouds
8:52 PM 69.1 °F - 66.0 °F 90% 29.79 in 10.0 mi SE 6.9 mph - 0.18 in   Partly Cloudy
9:52 PM 68.0 °F - 66.0 °F 93% 29.78 in 10.0 mi SSE 6.9 mph - N/A   Scattered Clouds
10:35 PM 69.8 °F - 66.2 °F 88% 29.78 in 10.0 mi South 6.9 mph - N/A Thunderstorm Thunderstorm
10:52 PM 71.1 °F - 66.9 °F 87% 29.80 in 10.0 mi SW 13.8 mph 26.5 mph 0.00 in Rain , Thunderstorm Light Thunderstorms and Rain
11:23 PM 69.8 °F - 66.2 °F 88% 29.79 in 10.0 mi Calm Calm - 0.09 in   Scattered Clouds
11:52 PM 68.0 °F - 66.0 °F 93% 29.75 in 7.0 mi ESE 6.9 mph - 0.09 in   Mostly Cloudy